Погода в Кембридже

США     42°23′09″N   71°08′30″W
темп.,
°C
ветер,
м/с
пор.,
м/с
влажн.,
%
обл.,
%
осадки,
мм/ч
давл.,
гПа
погр.,
м
27 февраля, сб
сб2701:00−2ю398684 0.0 1033254
04:00−2ю310860 0.0 1031339
07:000ююв3118250 0.0 1029518
10:00+4ю51278100 0.0 1026862
13:00+4ююв31398100 2.6 1021734
16:00+4ю1799100 3.2 1017220
19:00+5зюз299997 3.7 1016229
22:00+4з389338 0.0 1019165
28 февраля, вс
вс2801:00+2сз3128950 0.0 1021370
04:000з1290100 0.0 102222
07:000юз2589100 0.0 1024119
10:00+5ссз0174100 0.0 1025197
13:00+6юв2469100 0.0 1022441
16:00+5юв2574100 0.0 1020353
19:00+3юв2688100 0.1 1017315
22:00+3вюв1497100 0.9 1014164
1 марта, пн
пн101:00+3юв2499100 0.9 1009118
04:00+4ю1299100 0.0 100452
07:00+6юз31198100 0.3 1003454
10:00+5зсз41078100 0.3 1003747
13:00+7зсз5971100 0.3 1002939
16:00+5з5965100 0.0 10021017
19:00+1зсз5136695 0.0 1003923
22:00−1зюз25770 0.0 1001170
2 марта, вт
вт201:00−2з7145735 0.1 9991350
04:00−10зсз11226467 0.1 10031720
07:00−13сз10204783 0.2 10101434
10:00−11сз9183646 0.0 10161624
13:00−7зсз9173424 0.0 10161631
16:00−5сз816330 0.0 10181613
19:00−6зсз512430 0.0 10231332
22:00−7з510470 0.0 1025762
3 марта, ср
ср301:00−7з512490 0.0 1024580
04:00−6зюз4125540 0.0 1023639
07:00−4юз3145220 0.0 1022568
10:00+3зюз612310 0.0 1019848
13:00+7зюз6122917 0.0 10171176
16:00+7зюз4103910 0.0 10171135
19:00+3юз3135932 0.0 1018379
22:00+2зюз310680 0.0 1019273